sat.trackr.live / text

‹ back to catalog

STARLINK-37149

NORAD 68309 · 2026-057R

PAYLOAD ACTIVE UNKNOWN

§ Identity

Operator
Country
US
Launch date
2026-03-20
Launch site
AFWTR
Launch vehicle
Mass (kg)
RCS (m²)

Purposes: comms

External: N2YO · Heavens-Above · Gunter

§ Orbital elements

Epoch: 2026-05-24T20:41:55.796640Z

Period
91.42 min
Inclination
97.2844°
Eccentricity
0.0004436
Mean motion
15.75181570 rev/d
Perigee alt
341.1 km
Apogee alt
347.1 km
Semi-major
6,722.3 km
B*
1.1619e-3
RAAN
271.0516°
Arg perigee
56.5481°
Mean anomaly
303.6208°
Rev number
1,027

§ Raw data

STARLINK-371491 68309U 26057R   26144.86245135  .00176805  00000+0  11619-2 0  99932 68309  97.2844 271.0516 0004436  56.5481 303.6208 15.75181570 10272

JSON: /api/v1/satellites/68309 · /tle

For live sub-satellite position, see the globe view (requires WebGL).

§ Visibility from observer

Set your observer location to see the next 7 days of passes ≥ 10°. The values pass through the URL so the page stays shareable.

No JS? Fill the form by hand. The geolocation button needs JavaScript.